Weather History for Beaufort, NC

Change the Weather History Date:

Friday, February 1, 2013

  Actual Average Record
Temperature  
Mean Temperature 42 °F -  
Max Temperature 54 °F 57 °F 73 °F (1990)
Min Temperature 30 °F 35 °F 14 °F (1965)
Degree Days  
Heating Degree Days 23    
Moisture  
Dew Point 21 °F    
Average Humidity 41    
Maximum Humidity 52    
Minimum Humidity 21    
Precipitation  
Precipitation 0.00 in - - ()
Sea Level Pressure  
Sea Level Pressure 30.16 in    
Wind  
Wind Speed 16 mph (WNW)    
Max Wind Speed 28 mph    
Max Gust Speed 37 mph    
Visibility 10 miles    
Events      
Averages and records for this station are not official NWS values.
T = Trace of Precipitation, MM = Missing Value Source: NWS Daily Summary

Daily Weather History Graph

Daily Weather History Graph

Search for Another Location

Airport:

Trip Planner

Search our weather history database for the weather conditions in past years. The results will help you decide how hot, cold, wet, or windy it might be!

Date:

Astronomy

Feb. 01, 2013 Rise Set
Actual Time 7:04 AM EST 5:36 PM EST
Civil Twilight 6:38 AM EST 6:02 PM EST
Nautical Twilight 6:08 AM EST 6:32 PM EST
Astronomical Twilight 5:38 AM EST 7:02 PM EST
Moon 11:23 PM EST (2/1) 9:53 AM EST (2/1)
Length of Visible Light 11h 24m
Length of Day
10h 31m
Waning Gibbous, 70% of the Moon is Illuminated
Feb 1
Waning Gibbous
Feb 3
Last Quarter
Feb 10
New
Feb 17
First Quarter
Feb 25
Full

Hourly Weather History & Observations

Time (EST) Temp. Windchill Dew Point Humidity Pressure Visibility Wind Dir Wind Speed Gust Speed Precip Events Conditions
12:58 AM 46.9 °F - 30.0 °F 52% 30.07 in 10.0 mi West 12.7 mph - N/A   Clear
1:58 AM 46.9 °F - 28.9 °F 50% 30.08 in 10.0 mi West 13.8 mph 20.7 mph N/A   Clear
2:58 AM 46.9 °F - 28.0 °F 48% 30.06 in 10.0 mi West 12.7 mph 21.9 mph N/A   Clear
3:58 AM 46.0 °F 38.8 °F 26.1 °F 46% 30.05 in 10.0 mi West 18.4 mph 24.2 mph N/A   Clear
4:58 AM 46.9 °F - 28.9 °F 50% 30.04 in 10.0 mi WSW 15.0 mph 23.0 mph N/A   Clear
5:58 AM 48.0 °F - 28.9 °F 48% 30.04 in 10.0 mi WSW 23.0 mph 32.2 mph N/A   Clear
6:58 AM 48.9 °F - 32.0 °F 52% 30.02 in 10.0 mi WSW 21.9 mph 33.4 mph N/A   Clear
7:58 AM 51.1 °F - 33.1 °F 50% 30.02 in 10.0 mi WSW 20.7 mph 31.1 mph N/A   Clear
8:58 AM 52.0 °F - 30.9 °F 45% 30.03 in 10.0 mi WSW 24.2 mph 32.2 mph N/A   Clear
9:58 AM 53.1 °F - 30.0 °F 41% 30.04 in 10.0 mi West 19.6 mph 32.2 mph N/A   Clear
10:58 AM 54.0 °F - 30.0 °F 40% 30.06 in 10.0 mi WNW 27.6 mph 36.8 mph N/A   Partly Cloudy
11:58 AM 48.9 °F - 32.0 °F 52% 30.10 in 10.0 mi NNW 25.3 mph 34.5 mph N/A   Partly Cloudy
12:58 PM 48.9 °F - 23.0 °F 36% 30.13 in 10.0 mi NW 25.3 mph 32.2 mph N/A   Partly Cloudy
1:58 PM 48.0 °F - 12.9 °F 24% 30.15 in 10.0 mi WNW 24.2 mph 29.9 mph N/A   Clear
2:58 PM 46.9 °F - 9.0 °F 21% 30.17 in 10.0 mi NW 21.9 mph - N/A   Clear
3:58 PM 45.0 °F 37.4 °F 12.0 °F 26% 30.20 in 10.0 mi NW 18.4 mph - N/A   Clear
4:58 PM 42.1 °F 33.9 °F 12.9 °F 31% 30.25 in 10.0 mi NNW 17.3 mph - N/A   Clear
5:58 PM 39.0 °F 31.8 °F 12.9 °F 34% 30.27 in 10.0 mi NNW 11.5 mph - N/A   Clear
6:58 PM 35.1 °F 30.1 °F 10.9 °F 37% 30.31 in 10.0 mi North 5.8 mph - N/A   Clear
7:58 PM 35.1 °F 28.6 °F 9.0 °F 34% 30.34 in 10.0 mi North 8.1 mph - N/A   Clear
8:58 PM 34.0 °F 28.8 °F 10.9 °F 38% 30.35 in 10.0 mi North 5.8 mph - N/A   Clear
9:58 PM 32.0 °F 25.6 °F 12.0 °F 44% 30.37 in 10.0 mi North 6.9 mph - N/A   Clear
10:58 PM 30.9 °F 26.2 °F 10.9 °F 43% 30.39 in 10.0 mi North 4.6 mph - N/A   Clear
11:58 PM 30.0 °F 24.1 °F 12.0 °F 47% 30.40 in 10.0 mi North 5.8 mph - N/A   Clear